AP-SC-ILM-SC RegionalWeatherRoundup, SC

000

ASUS42 KILM 151513

RWRILM

RWRILM

REGIONAL HOURLY WEATHER ROUNDUP

NATIONAL WEATHER SERVICE WILMINGTON NC

1100 AM EDT WED JUL 15 2015

NOTE: "FAIR" INDICATES FEW OR NO CLOUDS BELOW 12,000 FEET WITH NO

SIGNIFICANT WEATHER AND/OR OBSTRUCTIONS TO VISIBILITY.

...............WFO WILMINGTON COUNTY WARNING AREA...............

......COASTAL NC AND SC COUNTIES......

CITY SKY/WX TMP DP RH WIND PRES REMARKS

WILMINGTON PTSUNNY 86 70 58 W17G25 29.74F HX 90

N MYRTLE BEACH SUNNY 86 69 56 W8 29.75F HX 90

MYRTLE BEACH SUNNY 86 70 58 W17 29.78F HX 90

......INLAND NC AND SC COUNTIES.......

CITY SKY/WX TMP DP RH WIND PRES REMARKS

LUMBERTON SUNNY 85 69 58 W9 29.77F

ELIZABETHTOWN SUNNY 84 68 59 W8 29.77F

WHITEVILLE MOSUNNY 83 70 63 W7 29.76F

FLORENCE MOSUNNY 81 69 67 W7 29.78F

DARLINGTON MOSUNNY 82 68 61 SW7 29.80F

....................REST OF NORTH CAROLINA......................

.........EASTERN NC.........

CITY SKY/WX TMP DP RH WIND PRES REMARKS

CAPE HATTERAS PTSUNNY 81 73 76 SW10 29.73S

JACKSONVILLE MOSUNNY 84 70 61 W10 29.74F

MOREHEAD CITY PTSUNNY 85 74 69 SW12 29.73F HX 92

KENANSVILLE MOSUNNY 84 68 57 W8G16 29.76F

NEW BERN PTSUNNY 85 72 65 W12 29.73F HX 91

ELIZABETH CITY PTSUNNY 84 71 65 W12 29.70R

.........CENTRAL NC.........

CITY SKY/WX TMP DP RH WIND PRES REMARKS

RALEIGH DURHAM MOSUNNY 84 66 54 NW9 29.77R

ROCKY MOUNT MOSUNNY 88 66 48 NW8 29.74R HX 90

ROANOKE RAPIDS NOT AVBL

FAYETTEVILLE SUNNY 86 67 52 W8 29.76F

HOFFMAN SUNNY 84 69 58 NW7G13 29.78F

.........WESTERN NC.........

CITY SKY/WX TMP DP RH WIND PRES REMARKS

CHARLOTTE CLOUDY 85 63 47 W5 29.82R

GREENSBORO PTSUNNY 83 62 49 N10G18 29.80R

HICKORY NOT AVBL

BOONE NOT AVBL

ASHEVILLE NOT AVBL

.....................REST OF SOUTH CAROLINA.....................

.........EASTERN SC.........

CITY SKY/WX TMP DP RH WIND PRES REMARKS

CHARLESTON MOSUNNY 89 70 53 W13G21 29.78F HX 94

BEAUFORT MCAS PTSUNNY 88 73 61 W14 29.81F HX 95

HILTON HEAD MOSUNNY 84 77 79 SW13G18 29.84 HX 94

.........CENTRAL SC.........

CITY SKY/WX TMP DP RH WIND PRES REMARKS

COLUMBIA MOSUNNY 87 68 52 W8 29.81S HX 90

ORANGEBURG MOSUNNY 84 68 58 W12 29.82F

SUMTER SHAW MOSUNNY 82 70 67 W8 29.79F

.........WESTERN SC.........

CITY SKY/WX TMP DP RH WIND PRES REMARKS

GREENVILLE NOT AVBL

ROCK HILL MOSUNNY 85 68 56 W9 29.82S

ANDERSON SUNNY 84 71 65 W12 29.85R

CLEMSON NOT AVBL

GREENWOOD SUNNY 83 70 64 W5 29.85S

...................COASTAL AND OFFSHORE REPORTS..................

................LOCAL PIERS AND NC RESERVE................

STATION/POSITION TIME SKY/WX TEMP WIND PRES VSBY

AIR SEA DIR/SP/G

(UTC) (F) (DEG/KT/KT) (MB) (MI)

JOHNY MRCER PIER 1400 84 79 260/ 12/ 17 1007.5R

NC RESRV MASNBRO NOT AVBL

OCEAN CREST PIER NOT AVBL

SPRINGMAID PIER 1400 81 80 230/ 11/ 17 1008.5F

................COASTAL AND OFFSHORE BUOYS................

STATION/POSITION TIME SKY/WX TEMP WIND PRES VSBY

AIR SEA DIR/SP/G

(UTC) (F) (DEG/KT/KT) (MB) (MI)

DIMNDSHOAL 41025 1450 81 83 240/ 21/ 25 1006.5S

WVE H/P(F/S) 8/ 7 WND WVE H/P(F/S) 8/ 7 SWL H/P/D(F/S/D) 2/310/11

CAPE LOOKOUT 1500 81 250/ 14/ 17 1006.6F

ONSLOW BAY 41036 NOT AVBL

5 WRITEBCH 41038 1408 81 79 250/ 14/ 19 1007.6F

MASONBORO 41110 1419 79 N/A

WVE H/P(F/S) 4/ 7 WND WVE H/P(F/S) 3/ 7

WILM HARBR 41108 1411 81 N/A

WVE H/P(F/S) 5/ 6 WND WVE H/P(F/S) 5/ 6

27WRITEBCH 41037 1400 80 260/ 19/ 23 N/A

FRYING PAN 41013 1450 81 81 250/ 17/ 21 1007.2F

WVE H/P(F/S) 6/ 7 WND WVE H/P(F/S) 5/ 7 SWL H/P/D(F/S/D) 2/210/11

SUNST NRSH 41024 1408 80 250/ 14/ 17 1008.1F

CAPRS NRSH 41029 1408 81 260/ 14/ 17 1009.3F

EDISTO 41004 1450 81 83 250/ 17/ 21 1008.1F

WVE H/P(F/S) 5/ 6 WND WVE H/P(F/S) 5/ 6 SWL H/P/D(F/S/D) 2/14

..........OFFSHORE BUOYS BEYOND 100 NM OFFSHORE...........

.....IN A TRIANGLE---HAT TO BERMUDA TO BAHAMAS TO HAT.....

STATION/POSITION TIME SKY/WX TEMP WIND PRES VSBY

AIR SEA DIR/SP/G

(UTC) (F) (DEG/KT/KT) (MB) (MI)

150E HAT 41001 NOT AVBL

W BERMUDA 41048 1450 82 81 220/ 17/ 21 1016.6R

WVE H/P(F/S) 8/ 7 WND WVE H/P(F/S) 8/ 7 SWL H/P/D(F/S/D) 2/140/15

ATLANTIC S 41049 1450 83 84 150/ 14/ 16 1023.1R

WVE H/P(F/S) 4/ 8 WND WVE H/P(F/S) 3/ 4 SWL H/P/D(F/S/D) 2/130/ 8

E BAHAMAS 41046 1450 83 84 120/ 10/ 12 1020.5R

WVE H/P(F/S) 4/ 8 WND WVE H/P(F/S) 2/ 5 SWL H/P/D(F/S/D) 3/ 90/ 8

NE BAHAMAS 41047 1450 83 83 190/ 17/ 21 1018.8R

WVE H/P(F/S) 5/ 7 WND WVE H/P(F/S) 5/ 7 SWL H/P/D(F/S/D) 2/140/ 8

120E CANVRL41010 1420 84 85 230/ 16/ 17 1015.5F

END

Delivered by Weather Underground Inc. Wed Jul 15 2015 11:13AM EDT